Regional Weather Roundup
Issued by NWS

Home | Current Version | Previous Version | Text Only | Print | Product List | Glossary Off
Versions: 1 2 3 4 5 6 7 8 9 10 11 12 13 14 15 16 17 18 19 20 21 22 23 24 25 26 27 28 29 30 31 32 33 34 35 36 37 38 39 40 41 42 43 44 45 46 47 48 49 50

000
ASUS43 KLSX 210910
RWRMO

WEATHER SUMMARY FOR MISSOURI
NATIONAL WEATHER SERVICE SPRINGFIELD MO
400 AM CDT FRI JUL 21 2017

NOTE: "FAIR" INDICATES FEW OR NO CLOUDS BELOW 12,000 FEET WITH NO
       SIGNIFICANT WEATHER AND/OR OBSTRUCTIONS TO VISIBILITY.
       CURRENT SKY AND/OR WEATHER CONDITIONS ARE NOT AVAILABLE FOR
       CHILLICOTHE AND FARMINGTON.

MOZ001>031-035>038-043-044-053-054-211000-
...NORTHERN AND WESTERN MISSOURI...

CITY           SKY/WX    TMP DP  RH WIND       PRES   REMARKS
KANSAS CTY INT CLEAR     80  73  79 SW10      29.94F
KANSAS C DTWN  CLEAR     85  72  65 SW12      29.93F HX  91
LEE`S SUMMIT   CLEAR     81  73  76 SW13      29.96F
ST JOSEPH      CLEAR     79  75  87 S7        29.92F
CHILLICOTHE      N/A     79  76  90 CALM      29.95F
KIRKSVILLE     CLOUDY    79  75  87 S6        29.97F

$$
MOZ066>068-077>081-088>096-101>105-211000-
...SOUTHWEST MISSOURI...

CITY           SKY/WX    TMP DP  RH WIND       PRES   REMARKS
SPRINGFIELD    CLEAR     76  72  87 CALM      30.02S
JOPLIN         CLEAR     80  73  79 S9        30.00F
BRANSON          N/A     77  72  83 CALM      30.04S

$$
MOZ032>034-039>042-045>050-055>058-069>072-211000-
...CENTRAL MISSOURI...

CITY           SKY/WX    TMP DP  RH WIND       PRES   REMARKS
COLUMBIA       CLEAR     78  72  81 SW3       29.98F
JEFFERSON CITY CLEAR     76  76 100 E3        29.97S
ROLLA          CLEAR     74  71  91 SW8       30.01S
WHITEMAN AFB   CLEAR     75  75 100 SW9       29.96S
WARRENSBURG    CLEAR     73  70  88 CALM      29.96S
OSAGE BEACH    CLEAR     73  70  90 CALM      30.00S

$$
MOZ051-052-059>065-211000-
...EAST CENTRAL MISSOURI...

CITY           SKY/WX    TMP DP  RH WIND       PRES   REMARKS
ST LOUIS INTL  CLEAR     85  72  65 SW6       29.97S HX  91
SPIRIT OF STL  CLEAR     80  74  81 CALM      29.96R
ST CHARLES     CLEAR     77  75  93 MISG      29.95R

$$
MOZ072>076-082>087-097>100-106>115-211000-
...SOUTH CENTRAL AND SOUTHEAST MISSOURI...

CITY           SKY/WX    TMP DP  RH WIND       PRES   REMARKS
CAPE GIRARDEAU CLEAR     75  73  93 CALM      29.98S
FARMINGTON     CLEAR     77  74  90 S3        30.01S
POPLAR BLUFF   CLEAR     78  77  96 CALM      29.99R
WEST PLAINS    CLEAR     76  73  91 W5        30.05R

$$



USA.gov is the U.S. government's official web portal to all federal, state and local government web resources and services.